Find Starlink 6107

NORAD ID: 56117 Int'l Des: 2023-046 Owner: SPXS Country: US Constellation: starlink operational
LEOCIRCULAR

Live-Position

3D-Globus wird geladen...

Über Starlink 6107

Beschreibung wird geladen...

Nächste Überflüge

Passes for default location (London). Set your location on the main map for personalized predictions.

Höhenverlauf

Loading altitude history...

Zweizeiliger Elementsatz

1 56117U 23046AA 26125.54285350 .00001221 00000-0 53889-4 0 9996
2 56117 43.0024 186.0456 0001732 281.8669 78.1989 15.27575266170891
Epoch: 5. Mai 2026 • Age: 17 hours

Aktueller Status

Höhe 495.2 km
Geschwindigkeit 7.62 km/s
Subsatellitenpunkt -42.79°S, 130.76°E
Startdatum 29. März 2023
Alter 3.1 years
Typ internet

Technische Details

Klassifizierung Payload
Masse 305.00 kg
Trockenmasse 290.00 kg
Gesamtmasse 305.00 kg
Länge 0.20 m
Durchmesser 2.80 m
Spannweite 9.00 m
Form Box + pan
Hersteller SPXS
Bus-Typ Starlink
Phasenstatus In Orbit
Besitzer/Staat SPXS/US

Most Searched